Weather History for Norwood, MA

Change the Weather History Date:

Thursday, January 17, 2013

  Actual Average Record
Temperature  
Mean Temperature 36 °F -  
Max Temperature 43 °F 30 °F 50 °F (2012)
Min Temperature 30 °F 14 °F -9 °F (2009)
Degree Days  
Heating Degree Days 28    
Moisture  
Dew Point 26 °F    
Average Humidity 68    
Maximum Humidity 92    
Minimum Humidity 46    
Precipitation  
Precipitation 0.00 in - - ()
Sea Level Pressure  
Sea Level Pressure 29.97 in    
Wind  
Wind Speed 6 mph (West)    
Max Wind Speed 13 mph    
Max Gust Speed 25 mph    
Visibility 10 miles    
Events      
Averages and records for this station are not official NWS values.
T = Trace of Precipitation, MM = Missing Value Source: NWS Daily Summary

Daily Weather History Graph

Daily Weather History Graph

Search for Another Location

Airport:

Trip Planner

Search our weather history database for the weather conditions in past years. The results will help you decide how hot, cold, wet, or windy it might be!

Date:

Astronomy

Jan. 17, 2013 Rise Set
Actual Time 7:09 AM EST 4:40 PM EST
Civil Twilight 6:38 AM EST 5:11 PM EST
Nautical Twilight 6:04 AM EST 5:45 PM EST
Astronomical Twilight 5:30 AM EST 6:19 PM EST
Moon 10:06 AM EST (1/17) 11:37 PM EST (1/17)
Length of Visible Light 10h 32m
Length of Day
9h 30m
Waxing Crescent, 37% of the Moon is Illuminated
Jan 17
Waxing Crescent
Jan 18
First Quarter
Jan 26
Full
Feb 3
Last Quarter
Feb 10
New

Hourly Weather History & Observations

Time (EST) Temp. Windchill Dew Point Humidity Pressure Visibility Wind Dir Wind Speed Gust Speed Precip Events Conditions
12:35 AM 35.6 °F 29.9 °F 30.2 °F 81% 29.84 in 10.0 mi SW 6.9 mph - N/A   Overcast
12:53 AM 34.0 °F 27.2 °F 30.9 °F 89% 29.85 in 10.0 mi WSW 8.1 mph - N/A   Overcast
1:53 AM 34.0 °F 29.8 °F 30.9 °F 89% 29.87 in 10.0 mi SW 4.6 mph - N/A   Overcast
2:44 AM 33.8 °F 29.6 °F 30.2 °F 87% 29.86 in 10.0 mi SW 4.6 mph - N/A   Scattered Clouds
2:53 AM 34.0 °F 31.0 °F 30.9 °F 89% 29.86 in 10.0 mi SW 3.5 mph - N/A   Mostly Cloudy
3:04 AM 33.8 °F 29.6 °F 30.2 °F 87% 29.86 in 10.0 mi SW 4.6 mph - N/A   Scattered Clouds
4:53 AM 30.9 °F 27.5 °F 28.9 °F 92% 29.86 in 9.0 mi SSW 3.5 mph - N/A   Clear
5:53 AM 32.0 °F 28.7 °F 28.9 °F 88% 29.88 in 10.0 mi SW 3.5 mph - N/A   Clear
7:53 AM 32.0 °F 27.5 °F 28.9 °F 88% 29.93 in 10.0 mi WSW 4.6 mph - N/A   Clear
8:53 AM 34.0 °F 28.8 °F 28.9 °F 82% 29.95 in 10.0 mi WSW 5.8 mph - N/A   Clear
9:53 AM 36.0 °F 32.1 °F 28.0 °F 73% 29.98 in 10.0 mi WSW 4.6 mph - N/A   Clear
10:53 AM 37.9 °F 31.5 °F 28.0 °F 68% 29.97 in 10.0 mi WSW 9.2 mph - N/A   Clear
11:53 AM 39.0 °F 32.3 °F 28.9 °F 67% 29.97 in 10.0 mi West 10.4 mph - N/A   Clear
12:53 PM 41.0 °F 33.9 °F 27.0 °F 57% 29.96 in 10.0 mi West 12.7 mph 20.7 mph N/A   Clear
1:53 PM 42.1 °F 36.6 °F 27.0 °F 55% 29.99 in 10.0 mi WNW 9.2 mph 25.3 mph N/A   Partly Cloudy
2:53 PM 43.0 °F 38.2 °F 24.1 °F 47% 30.00 in 10.0 mi WNW 8.1 mph 21.9 mph N/A   Clear
3:53 PM 41.0 °F 34.3 °F 21.9 °F 47% 30.01 in 10.0 mi West 11.5 mph - N/A   Clear
4:53 PM 39.9 °F 35.1 °F 24.1 °F 53% 30.04 in 10.0 mi West 6.9 mph - N/A   Clear
5:53 PM 39.0 °F 34.0 °F 24.1 °F 55% 30.05 in 10.0 mi WNW 6.9 mph - N/A   Clear
6:53 PM 37.9 °F 32.1 °F 21.0 °F 51% 30.08 in 10.0 mi WNW 8.1 mph - N/A   Scattered Clouds
7:53 PM 36.0 °F 31.1 °F 21.0 °F 55% 30.08 in 10.0 mi NNW 5.8 mph - N/A   Partly Cloudy
8:53 PM 35.1 °F 30.1 °F 19.9 °F 54% 30.07 in 10.0 mi North 5.8 mph - N/A   Clear
9:53 PM 33.1 °F 27.7 °F 19.0 °F 56% 30.08 in 10.0 mi North 5.8 mph - N/A   Overcast
10:53 PM 32.0 °F 27.5 °F 17.1 °F 54% 30.08 in 10.0 mi North 4.6 mph - N/A   Overcast
11:53 PM 30.9 °F 24.3 °F 12.0 °F 46% 30.06 in 10.0 mi North 6.9 mph - N/A   Mostly Cloudy